Regional Weather Roundup
Issued by NWS Binghamton, NY

Home | Current Version | Previous Version | Text Only | Print | Product List | Glossary On
Versions: 1 2 3 4 5 6 7 8 9 10 11 12 13 14 15 16 17 18 19 20 21 22 23 24 25 26 27 28 29 30 31 32 33 34 35 36 37 38 39 40 41 42 43 44 45 46 47 48 49 50
000
ASUS41 KBGM 032110
RWRBGM
RWRBGM
BINGHAMTON REGIONAL WEATHER ROUNDUP
NATIONAL WEATHER SERVICE BINGHAMTON NY
500 PM EDT MON AUG 03 2015

Note: "fair" indicates few or no clouds below 12,000 feet with no
significant weather and/or obstructions to visibility.

* = Station(s) that does not report precipitation, such as rain,
snow, etc, also no thunder or fog.

!NYZ009-015>018-022>025-036-037-044>046-055>057-062-032200
...CENTRAL NEW YORK...

CITY           SKY/WX    TMP DP  RH WIND       PRES   REMARKS
BINGHAMTON     MOSUNNY   78  61  55 SW8       29.80F
CORTLAND       FAIR      81  61  50 SW7       29.78F
DANSVILLE      PTSUNNY   75  64  68 NW3       29.78F
ELMIRA         MOSUNNY   84  60  44 W12       29.75F
ITHACA         MOSUNNY   82  59  45 W12       29.78F
HORNELL          N/A     77  55  47 W6        29.81F
MONTICELLO     PTSUNNY   72  64  78 S5        29.83F
NORWICH        SUNNY     81  59  47 CALM      29.78S
PENN YAN       PTSUNNY   75  60  59 S3        29.78F
ROME           MOSUNNY   79  58  48 W12       29.76F
SIDNEY         PTSUNNY   79  64  61 CALM      29.77S
SYRACUSE       LGT RAIN  75  65  70 SW10      29.75R
$$

!PAZ038>040-043-044-047-048-072-032200
...NORTHEAST PENNSYLVANIA...

CITY           SKY/WX    TMP DP  RH WIND       PRES   REMARKS
HAZLETON       PTSUNNY   81  59  47 SW7       29.87S
SCRANTON       MOSUNNY   83  64  52 VRB3      29.79F
TOWANDA*       MOSUNNY   82  61  47 SW13      29.77F
$$
&&
KEY
WCI = WIND CHILL INDEX
VSB = VISIBILITY
HX  = HEAT INDEX
$$


USA.gov is the U.S. government's official web portal to all federal, state and local government web resources and services.